Regional Weather Roundup
Issued by NWS

Home | Current Version | Previous Version | Graphics & Text | Print | Product List | Glossary On
Versions: 1 2 3 4 5 6 7 8 9 10 11 12 13 14 15 16 17 18 19 20 21 22 23 24 25 26 27 28 29 30 31 32 33 34 35 36 37 38 39 40 41 42 43 44 45 46 47 48 49 50
000
ASUS44 KMEG 242210
RWRTN
TENNESSEE HOURLY STATE WEATHER ROUNDUP
NATIONAL WEATHER SERVICE MEMPHIS TN
500 PM CDT FRI OCT 24 2014

TNZ002-004-019-021-049-052-054-088>092-242300-
WEST TENNESSEE

CITY           SKY/WX    TMP DP  RH WIND       PRES   REMARKS
MEMPHIS INTL   MOSUNNY   75  53  46 N6        30.08S
NWS MEMPHIS      N/A     74 N/A N/A MISG        N/A
JACKSON        SUNNY     71  52  50 NW5       30.07S
DYERSBURG      SUNNY     72  46  40 W6        30.08S
UNION CITY     SUNNY     68  54  60 W6        30.07R
PARIS          SUNNY     66  52  59 CALM      30.07F
HUNTINGDON     SUNNY     67  50  54 CALM      30.07S
LEXINGTON      PTSUNNY   70  52  52 N3        30.06S
SAVANNAH       SUNNY     72  48  43 CALM      30.07S
$$

TNZ008-025-027-028-033-062-065-066-242300-
NORTH MIDDLE TENNESSEE

CITY           SKY/WX    TMP DP  RH WIND       PRES   REMARKS
NASHVILLE      MOSUNNY   68  45  43 NW6       30.06S
CLARKSVILLE    MOSUNNY   68  48  48 W3        30.06S
SMYRNA         SUNNY     69  46  43 N5        30.07S
COOKEVILLE     CLEAR     66  43  42 NE3       30.06S
CROSSVILLE     CLEAR     65  31  28 N7        30.07R
$$

TNZ061-075-076-078-094-096-097-242300-
SOUTH MIDDLE TENNESSEE

CITY           SKY/WX    TMP DP  RH WIND       PRES   REMARKS
FAYETTEVILLE   SUNNY     66  36  32 N8        30.06S
TULLAHOMA      SUNNY     64  36  34 NW6       30.07S
WINCHESTER     SUNNY     66  39  37 NW5       30.06S
MCMINNVILLE    SUNNY     66  43  42 CALM      30.06S
COLUMBIA       SUNNY     70  46  43 CALM      30.05S
SHELBYVILLE    SUNNY     68  45  42 N5        30.07S
$$

TNZ017-018-042-046-047-242300-
NORTHEAST TENNESSEE

CITY           SKY/WX    TMP DP  RH WIND       PRES   REMARKS
TRI CITIES     PTCLDY    63  40  42 W6        30.04S
ELIZABETHTON   CLEAR     61  43  51 W5        30.03S
$$

TNZ012-013-036-069-073-074-242300-
CENTRAL EAST TENNESSEE

CITY           SKY/WX    TMP DP  RH WIND       PRES   REMARKS
KNOXVILLE      PTCLDY    66  38  35 N3        30.02F
OAK RIDGE      CLEAR     67  45  45 SE3       30.04F
GATLINBURG     PTCLDY    64  39  39 NE3       30.03S
MORRISTOWN     CLEAR     64  43  45 CALM      30.05S
$$

TNZ083-085-099-242300-
SOUTHEAST TENNESSEE

CITY           SKY/WX    TMP DP  RH WIND       PRES   REMARKS
CHATTANOOGA    PTCLDY    71  43  36 N3        30.02F
$$

SKY/WX REPORTED AS FAIR MEANS FEW OR NO CLOUDS BELOW
12 THOUSAND FEET.




USA.gov is the U.S. government's official web portal to all federal, state and local government web resources and services.